Location: Acheville
(50.3840°N, 2.8827°E)
Time: 17:36:14
(UTC+00:00)

NOSS 2-3 (D) - Pass Details

Date: 24 October 2021
Orbit: 538 x 1672 km, 63.3° (Epoch: 25 November)

Event Time Altitude Azimuth Distance (km) Brightness Sun altitude
Rises 18:09:27 0° 211° (SSW) 2,690 7.3 -15.1°
Reaches altitude 10° 18:11:31 10° 208° (SSW) 1,833 6.3 -15.4°
Maximum altitude 18:15:28 62° 128° (SE) 684 3.5 -16.0°
Enters shadow 18:18:18 22° 53° (NE) 1,431 5.0 -16.5°
